Weather observations for the past three days for
Redstone Airfield
| Date | Time (cdt) | Wind (kph) | Vis. (km) | Weather | Sky Cond. | Temperature (ºC) | Relative Humidity | Wind Chill (°C) | Heat Index (°C) | Pressure | Precipitation (cm) | ||||||
|---|---|---|---|---|---|---|---|---|---|---|---|---|---|---|---|---|---|
| Air | Dwpt | 6 hour | altimeter (cm) | sea level (mb) | 1 hr | 3 hr | 6 hr | ||||||||||
| Max. | Min. | ||||||||||||||||
| 05 | 23:55 | Calm | 16.09 | Thunderstorm in Vicinity | FEW100 | 24 | 22.8 | 93% | 23 | 75.92 | 1011.5 | ||||||
| 05 | 22:55 | Calm | 16.09 | Fair | CLR | 25.6 | 24.7 | 95% | 27 | 75.97 | 1012.1 | ||||||
| 05 | 21:55 | Calm | 16.09 | Fair | CLR | 24.7 | 24 | 96% | 25 | 75.95 | 1011.8 | 0.23 | |||||
| 05 | 19:55 | Calm | 16.09 | A Few Clouds | FEW160 | 24.8 | 22.6 | 88% | 25 | 75.84 | 1010.6 | 0.23 | |||||
| 05 | 18:55 | SW 24 G 70 | 4.83 | Thunderstorm Heavy Rain | SCT029 BKN070 | 26.8 | 20.8 | 38.4 | 26.8 | 70% | 29 | 75.9 | 1011.3 | 0.66 | 0.66 | ||
| 05 | 17:55 | Calm | 16.09 | Fair | CLR | 36.7 | 22.4 | 44% | 42 | 75.79 | 1009.8 | ||||||
| 05 | 16:55 | Calm | 16.09 | Fair | CLR | 37.5 | 22 | 41% | 43 | 75.82 | 1010.1 | ||||||
| 05 | 15:55 | Calm | 16.09 | A Few Clouds | FEW065 | 37.5 | 20.7 | 38% | 41 | 75.82 | 1010.1 | ||||||
| 05 | 14:55 | N 7 | 16.09 | Partly Cloudy | SCT065 | 37.8 | 21.8 | 40% | 43 | 75.9 | 1011.1 | ||||||
| 05 | 12:55 | Calm | 16.09 | Fair | CLR | 35.6 | 22.5 | 36 | 22.8 | 47% | 41 | 76.02 | 1012.8 | ||||
| 05 | 11:55 | N 9 | 16.09 | Fair | CLR | 34.8 | 23.7 | 52% | 41 | 76.05 | 1013.2 | ||||||
| 05 | 10:55 | N 6 | 16.09 | Fair | CLR | 33.4 | 24 | 58% | 40 | 76.12 | 1014.2 | ||||||
| 05 | 09:55 | Calm | 16.09 | Fair | CLR | 31.3 | 24.4 | 67% | 37 | 76.12 | 1014.2 | ||||||
| 05 | 08:55 | Calm | 16.09 | Fair | CLR | 28.4 | 24.6 | 80% | 33 | 76.15 | 1014.6 | ||||||
| 05 | 07:55 | Calm | 16.09 | Fair | CLR | 25.5 | 23.7 | 90% | 27 | 76.15 | 1014.6 | ||||||
| 05 | 06:55 | Calm | 16.09 | Fair | CLR | 22.7 | 22.2 | 24.1 | 21.4 | 97% | 76.12 | 1014.3 | |||||
| 05 | 05:55 | Calm | 16.09 | Fair | CLR | 21.8 | 21.1 | 96% | 76.07 | 1013.6 | |||||||
| 05 | 04:55 | Calm | 16.09 | Fair | CLR | 21.9 | 20.9 | 94% | 76.05 | 1013.3 | |||||||
| 05 | 03:55 | Calm | 16.09 | Fair | CLR | 22.8 | 21.9 | 95% | 76.02 | 1013.0 | |||||||
| 05 | 02:55 | Calm | 16.09 | Fair | CLR | 23.6 | 22 | 91% | 76 | 1012.4 | |||||||
| 05 | 01:55 | Calm | 14.48 | Fair | CLR | 23.2 | 21.8 | 92% | 76.02 | 1012.8 | |||||||
| 05 | 00:55 | Calm | 16.09 | Overcast | OVC250 | 23.9 | 22.3 | 28.6 | 22.9 | 91% | 23 | 76.05 | 1013.1 | ||||
| 04 | 23:55 | Calm | 14.48 | Fair | CLR | 23.9 | 21.8 | 88% | 24 | 76.05 | 1013.2 | ||||||
| 04 | 22:55 | Calm | 16.09 | Fair | CLR | 25 | 22.7 | 87% | 26 | 76.07 | 1013.5 | ||||||
| 04 | 21:55 | Calm | 16.09 | Fair | CLR | 25.3 | 22.6 | 85% | 26 | 76.1 | 1013.9 | ||||||
| 04 | 20:55 | Calm | 16.09 | Fair | CLR | 26.6 | 22.8 | 80% | 29 | 76.1 | 1013.9 | ||||||
| 04 | 19:55 | Calm | 16.09 | A Few Clouds | FEW160 | 27.3 | 22.4 | 75% | 30 | 76.1 | 1013.9 | ||||||
| 04 | 18:55 | NE 6 | 16.09 | Fair | CLR | 28.3 | 22.7 | 36.7 | 28.3 | 72% | 32 | 76.07 | 1013.6 | 0.13 | |||
| 04 | 17:55 | N 15 | 16.09 | Fair | CLR | 30.7 | 23.1 | 64% | 35 | 76.07 | 1013.6 | ||||||
| 04 | 16:55 | Calm | 16.09 | Fair | CLR | 30.7 | 25.3 | 73% | 38 | 76.05 | 1013.2 | 0.03 | |||||
| 04 | 15:55 | W 7 | 9.66 | Thunderstorm Light Rain | BKN065 OVC095 | 29.3 | 23.5 | 71% | 34 | 76.05 | 1013.3 | 0.1 | 0.1 | ||||
| 04 | 14:55 | Calm | 16.09 | A Few Clouds | FEW075 | 36.3 | 22.8 | 46% | 42 | 76.1 | 1013.8 | ||||||
| 04 | 13:55 | Calm | 16.09 | A Few Clouds | FEW080 | 35.7 | 23.3 | 49% | 42 | 76.15 | 1014.5 | ||||||
| 04 | 12:55 | SW 6 | 16.09 | A Few Clouds | FEW120 | 35.4 | 24 | 35.4 | 24.4 | 52% | 42 | 76.23 | 1015.5 | ||||
| 04 | 11:55 | Calm | 16.09 | Fair | CLR | 34.8 | 24.1 | 54% | 42 | 76.28 | 1016.2 | ||||||
| 04 | 10:55 | Calm | 16.09 | Fair | CLR | 32.7 | 24.1 | 61% | 39 | 76.3 | 1016.5 | ||||||
| 04 | 09:55 | Calm | 16.09 | Fair | CLR | 31.6 | 23.9 | 64% | 37 | 76.3 | 1016.5 | ||||||
| 04 | 08:55 | Calm | 16.09 | Fair | CLR | 29.3 | 23.9 | 73% | 34 | 76.28 | 1016.2 | ||||||
| 04 | 07:55 | Calm | 12.87 | Fair | CLR | 26.8 | 24 | 85% | 30 | 76.25 | 1015.9 | ||||||
| 04 | 06:55 | Calm | 16.09 | Fair | CLR | 24.8 | 22.8 | 25.8 | 23.1 | 89% | 25 | 76.23 | 1015.5 | ||||
| 04 | 05:55 | Calm | 16.09 | Fair | CLR | 23.5 | 22.1 | 92% | 76.2 | 1015.2 | |||||||
| 04 | 04:55 | Calm | 16.09 | Fair | CLR | 23.6 | 22 | 91% | 76.17 | 1014.8 | |||||||
| 04 | 03:55 | Calm | 16.09 | Fair | CLR | 23.8 | 22.2 | 91% | 76.15 | 1014.5 | |||||||
| 04 | 02:55 | Calm | 14.48 | Fair | CLR | 24.7 | 22.4 | 87% | 25 | 76.15 | 1014.5 | ||||||
| 04 | 01:55 | Calm | 14.48 | Fair | CLR | 25.2 | 22.7 | 86% | 26 | 76.15 | 1014.5 | ||||||
| 04 | 00:55 | Calm | 16.09 | Fair | CLR | 25.2 | 22.3 | 32.2 | 25.2 | 84% | 26 | 76.15 | 1014.5 | ||||
| 03 | 23:55 | Calm | 16.09 | Fair | CLR | 25.9 | 23 | 84% | 28 | 76.17 | 1014.8 | ||||||
| 03 | 22:55 | Calm | 16.09 | Fair | CLR | 27.3 | 23.9 | 82% | 31 | 76.17 | 1014.8 | ||||||
| 03 | 21:55 | Calm | 16.09 | Fair | CLR | 27.9 | 23.9 | 79% | 32 | 76.2 | 1015.2 | ||||||
| 03 | 20:55 | Calm | 16.09 | Partly Cloudy | SCT160 | 28.4 | 24.6 | 80% | 33 | 76.17 | 1014.9 | ||||||
| 03 | 19:55 | S 6 | 16.09 | Mostly Cloudy | BKN160 | 29.3 | 24.1 | 74% | 34 | 76.12 | 1014.2 | ||||||
| 03 | 18:55 | Calm | 14.48 | Fair | CLR | 32.1 | 23.3 | 37.2 | 32 | 60% | 37 | 76.1 | 1013.9 | ||||
| 03 | 17:55 | Calm | 16.09 | Fair | CLR | 35 | 22.6 | 49% | 40 | 76.1 | 1013.8 | ||||||
| 03 | 16:55 | NE 7 | 16.09 | Fair | CLR | 35.2 | 21.4 | 45% | 39 | 76.07 | 1013.5 | ||||||
| 03 | 15:55 | SW 6 | 16.09 | Fair | CLR | 36.3 | 20.9 | 41% | 40 | 76.1 | 1013.8 | ||||||
| 03 | 14:55 | Calm | 16.09 | Mostly Cloudy | BKN060 | 36.9 | 22.6 | 44% | 43 | 76.15 | 1014.5 | ||||||
| 03 | 13:55 | Calm | 16.09 | Mostly Cloudy | BKN060 BKN075 | 37 | 23 | 44% | 43 | 76.2 | 1015.1 | ||||||
| 03 | 12:55 | Calm | 16.09 | A Few Clouds | FEW060 | 35.1 | 22 | 35.4 | 23.6 | 47% | 40 | 76.25 | 1015.8 | ||||
| 03 | 11:55 | Calm | 16.09 | Fair | CLR | 34.8 | 23.7 | 52% | 41 | 76.3 | 1016.5 | ||||||
| 03 | 10:55 | E 6 | 16.09 | Fair | CLR | 33.2 | 23.5 | 57% | 39 | 76.35 | 1017.2 | ||||||
| 03 | 09:55 | Calm | 16.09 | Fair | CLR | 31.7 | 24.5 | 66% | 38 | 76.33 | 1016.9 | ||||||
| 03 | 08:55 | Calm | 16.09 | Fair | CLR | 28.4 | 23.5 | 75% | 32 | 76.35 | 1017.3 | ||||||
| 03 | 07:55 | Calm | 12.87 | Fair | CLR | 26.8 | 23.8 | 84% | 30 | 76.35 | 1017.3 | ||||||
| 03 | 06:55 | Calm | 14.48 | Fair | CLR | 23.6 | 22.7 | 25.1 | 23 | 95% | 76.33 | 1016.9 | |||||
| 03 | 05:55 | Calm | 16.09 | Fair | CLR | 23.1 | 22.2 | 95% | 76.28 | 1016.2 | |||||||
| 03 | 04:55 | Calm | 16.09 | Fair | CLR | 23.9 | 22.5 | 92% | 23 | 76.25 | 1015.8 | ||||||
| 03 | 03:55 | Calm | 16.09 | Fair | CLR | 24 | 22 | 89% | 24 | 76.25 | 1015.8 | ||||||
| 03 | 02:55 | Calm | 16.09 | Fair | CLR | 24.8 | 22.5 | 87% | 25 | 76.25 | 1015.8 | ||||||
| 03 | 01:55 | Calm | 16.09 | Fair | CLR | 24.8 | 22.5 | 87% | 25 | 76.25 | 1015.8 | ||||||
| 03 | 00:55 | Calm | 16.09 | Fair | CLR | 24.7 | 22.2 | 31.8 | 24.2 | 86% | 25 | 76.28 | 1016.2 | ||||
| Date | Time (cdt) | Wind (kph) | Vis. (km) | Weather | Sky Cond. | Air | Dwpt | Max. | Min. | Relative Humidity | Wind Chill (°C) | Heat Index (°C) | altimeter (cm) | sea level (mb) | 1 hr | 3 hr | 6 hr |
| 6 hour | |||||||||||||||||
| Temperature (ºC) | Pressure | Precipitation (cm) | |||||||||||||||